Regional Weather Roundup
Issued by NWS

Home | Current Version | Previous Version | Graphics & Text | Print | Product List | Glossary On
Versions: 1 2 3 4 5 6 7 8 9 10 11 12 13 14 15 16 17 18 19 20 21 22 23 24 25 26 27 28 29 30 31 32 33 34 35 36 37 38 39 40 41 42 43 44 45 46 47 48 49 50
000
ASUS44 KMEG 282210
RWRTN
TENNESSEE HOURLY STATE WEATHER ROUNDUP
NATIONAL WEATHER SERVICE MEMPHIS TN
500 PM CDT SAT MAR 28 2015

TNZ002-004-019-021-049-052-054-088>092-282300-
WEST TENNESSEE

CITY           SKY/WX    TMP DP  RH WIND       PRES   REMARKS
MEMPHIS INTL   CLOUDY    42  25  50 SE5       30.26F
NWS MEMPHIS      N/A     42 N/A N/A MISG        N/A
JACKSON        CLOUDY    45  20  36 W5        30.26S
DYERSBURG      MOSUNNY   46  19  34 W5        30.28S
UNION CITY     SUNNY     45  21  39 VRB3      30.25F
PARIS          SUNNY     45  12  26 VRB7      30.25F
LEXINGTON      SUNNY     48  10  21 VRB5      30.23S
SAVANNAH       PTSUNNY   45  16  31 CALM      30.25F
$$

TNZ008-025-027-028-033-062-065-066-282300-
NORTH MIDDLE TENNESSEE

CITY           SKY/WX    TMP DP  RH WIND       PRES   REMARKS
NASHVILLE      SUNNY     47  10  22 N8        30.25S
CLARKSVILLE    SUNNY     45  15  30 W7        30.26F
SMYRNA         SUNNY     46  13  26 N8        30.26S
COOKEVILLE     SUNNY     45  14  29 N8        30.21R
CROSSVILLE     SUNNY     41   7  24 N12       30.18R
$$

TNZ061-075-076-078-094-096-097-282300-
SOUTH MIDDLE TENNESSEE

CITY           SKY/WX    TMP DP  RH WIND       PRES   REMARKS
FAYETTEVILLE   SUNNY     45  10  24 N6        30.22S
TULLAHOMA      SUNNY     43   3  19 NW8       30.22S
WINCHESTER     SUNNY     45  12  26 N8        30.22S
MCMINNVILLE    SUNNY     45  10  24 N8        30.22R
COLUMBIA       SUNNY     46  12  25 NE6       30.22S
SHELBYVILLE    SUNNY     46  12  25 N8        30.24S
$$

TNZ017-018-042-046-047-282300-
NORTHEAST TENNESSEE

CITY           SKY/WX    TMP DP  RH WIND       PRES   REMARKS
TRI CITIES     MOSUNNY   41  12  30 NW10G20   30.15R
ELIZABETHTON   CLEAR     37  10  32 W8        30.14R WCI  31
$$

TNZ012-013-036-069-073-074-282300-
CENTRAL EAST TENNESSEE

CITY           SKY/WX    TMP DP  RH WIND       PRES   REMARKS
KNOXVILLE      MOSUNNY   46   9  22 N8G18     30.17R
OAK RIDGE      SUNNY     48   9  20 VRB7      30.19R
GATLINBURG     CLEAR     43  10  26 N8        30.17S
MORRISTOWN     PTCLDY    43  14  31 NW8       30.17R
$$

TNZ083-085-099-282300-
SOUTHEAST TENNESSEE

CITY           SKY/WX    TMP DP  RH WIND       PRES   REMARKS
CHATTANOOGA    MOSUNNY   51   7  16 VRB7      30.19R
$$

SKY/WX REPORTED AS FAIR MEANS FEW OR NO CLOUDS BELOW
12 THOUSAND FEET.



USA.gov is the U.S. government's official web portal to all federal, state and local government web resources and services.